TimePDT,TemperatureF,Dew PointF,Humidity,Sea Level PressureIn,VisibilityMPH,Wind Direction,Wind SpeedMPH,Gust SpeedMPH,PrecipitationIn,Events,Conditions,WindDirDegrees,DateUTC
12:35 AM,62.6,33.8,34,30.00,10.0,WSW,18.4,-,N/A,,Clear,240,2012-11-01 07:35:00
12:56 AM,62.1,34.0,35,29.96,10.0,WSW,17.3,-,N/A,,Clear,240,2012-11-01 07:56:00
1:56 AM,55.0,30.9,40,29.96,10.0,West,9.2,-,N/A,,Clear,260,2012-11-01 08:56:00
2:56 AM,61.0,34.0,36,29.95,10.0,WSW,15.0,-,N/A,,Clear,250,2012-11-01 09:56:00
3:56 AM,59.0,34.0,39,29.95,10.0,West,6.9,-,N/A,,Clear,280,2012-11-01 10:56:00
4:56 AM,60.1,34.0,38,29.95,10.0,West,10.4,-,N/A,,Clear,270,2012-11-01 11:56:00
5:56 AM,61.0,27.0,27,29.95,10.0,WSW,13.8,-,N/A,,Clear,250,2012-11-01 12:56:00
6:56 AM,59.0,24.1,26,29.96,10.0,West,11.5,-,N/A,,Clear,260,2012-11-01 13:56:00
7:56 AM,52.0,21.9,31,29.98,10.0,North,4.6,-,N/A,,Clear,360,2012-11-01 14:56:00
8:56 AM,57.9,26.1,30,29.99,10.0,Calm,Calm,-,N/A,,Clear,0,2012-11-01 15:56:00
9:56 AM,70.0,19.9,15,29.97,10.0,WSW,15.0,-,N/A,,Clear,250,2012-11-01 16:56:00
10:56 AM,73.0,18.0,12,29.98,10.0,WSW,16.1,-,N/A,,Clear,240,2012-11-01 17:56:00
11:56 AM,73.9,18.0,12,29.96,10.0,SW,16.1,25.3,N/A,,Clear,220,2012-11-01 18:56:00
12:56 PM,77.0,17.1,10,29.92,10.0,WSW,15.0,-,N/A,,Clear,240,2012-11-01 19:56:00
1:56 PM,77.0,18.0,11,29.91,10.0,SW,13.8,20.7,N/A,,Clear,220,2012-11-01 20:56:00
2:56 PM,75.9,23.0,14,29.90,10.0,WSW,18.4,23.0,N/A,,Clear,250,2012-11-01 21:56:00
3:56 PM,73.0,28.9,20,29.92,10.0,WSW,18.4,-,N/A,,Clear,240,2012-11-01 22:56:00
4:56 PM,71.1,30.0,22,29.92,10.0,SW,17.3,-,N/A,,Clear,230,2012-11-01 23:56:00
5:56 PM,64.9,36.0,34,29.93,10.0,West,11.5,-,N/A,,Clear,260,2012-11-02 00:56:00
6:56 PM,59.0,35.1,41,29.96,10.0,West,4.6,-,N/A,,Clear,280,2012-11-02 01:56:00
7:56 PM,57.0,36.0,45,29.97,10.0,West,8.1,-,N/A,,Clear,270,2012-11-02 02:56:00
8:56 PM,57.0,37.0,47,29.97,10.0,WSW,5.8,-,N/A,,Clear,240,2012-11-02 03:56:00
9:56 PM,51.1,30.9,46,29.98,10.0,West,3.5,-,N/A,,Clear,270,2012-11-02 04:56:00
10:56 PM,52.0,35.1,53,29.97,10.0,West,6.9,-,N/A,,Clear,270,2012-11-02 05:56:00
11:56 PM,52.0,39.0,61,29.96,10.0,WNW,5.8,-,N/A,,Clear,290,2012-11-02 06:56:00